| time (UTC) | temp F | wind direction | speed knots | gust knots | rain 1hr in | rain 24hr in | rain mn in | humidity % | barometer mb |
| 20260505070054 | 0 | 255 | 1.7 | 7.8 | 0.00 | 0.00 | 0.00 | 1010.1 | |
| 20260505064556 | 0 | 240 | 1.7 | 7.0 | 0.00 | 0.00 | 0.00 | 1009.8 | |
| 20260505063056 | 0 | 182 | 3.5 | 9.6 | 0.00 | 0.00 | 0.00 | 1009.7 | |
| 20260505061618 | 0 | 170 | 0.9 | 2.6 | 0.00 | 0.00 | 0.00 | 1009.5 | |
| 20260505060055 | 0 | 271 | 1.7 | 7.8 | 0.00 | 0.00 | 0.00 | 1009.6 | |
| 20260505054604 | 0 | 217 | 2.6 | 8.7 | 0.00 | 0.00 | 0.00 | 1009.3 | |
| 20260505053056 | 0 | 293 | 0.9 | 6.1 | 0.00 | 0.00 | 0.00 | 1009.1 | |
| 20260505051553 | 0 | 206 | 1.7 | 6.1 | 0.00 | 0.00 | 0.00 | 1009.3 | |
| 20260505041553 | 0 | 172 | 2.6 | 8.7 | 0.00 | 0.00 | 0.00 | 1008.9 | |
| 20260505040100 | 0 | 274 | 3.5 | 9.6 | 0.00 | 0.00 | 0.00 | 1008.9 | |
| 20260505034550 | 0 | 260 | 4.3 | 8.7 | 0.00 | 0.00 | 0.00 | 1008.8 | |
| 20260505033053 | 0 | 200 | 4.3 | 9.6 | 0.00 | 0.00 | 0.00 | 1008.5 | |
| 20260505031552 | 0 | 157 | 4.3 | 9.6 | 0.00 | 0.00 | 0.00 | 1008.5 | |
| 20260505030052 | 0 | 120 | 2.6 | 14.8 | 0.00 | 0.00 | 0.00 | 1008.0 | |
| 20260505024609 | 0 | 247 | 2.6 | 9.6 | 0.00 | 0.00 | 0.00 | 1007.9 | |
| 20260505023051 | 0 | 197 | 3.5 | 12.2 | 0.00 | 0.00 | 0.00 | 1007.8 | |
| 20260505021613 | 0 | 225 | 2.6 | 7.0 | 0.00 | 0.00 | 0.00 | 1007.7 | |
| 20260505020054 | 0 | 77 | 1.7 | 11.3 | 0.00 | 0.00 | 0.00 | 1007.8 | |
| 20260505014555 | 0 | 276 | 5.2 | 10.4 | 0.00 | 0.00 | 0.00 | 1007.7 | |
| 20260505013057 | 0 | 251 | 2.6 | 9.6 | 0.00 | 0.00 | 0.00 | 1007.4 | |
| 20260505011557 | 0 | 190 | 3.5 | 7.8 | 0.00 | 0.00 | 0.00 | 1007.3 | |
| 20260505010053 | 0 | 205 | 4.3 | 10.4 | 0.00 | 0.00 | 0.00 | 1007.1 | |
| 20260505004552 | 0 | 278 | 3.5 | 7.8 | 0.00 | 0.00 | 0.00 | 1007.0 | |
| 20260505003058 | 0 | 137 | 1.7 | 9.6 | 0.00 | 0.00 | 0.00 | 1006.6 | |
| 20260505001555 | 0 | 196 | 5.2 | 13.0 | 0.00 | 0.00 | 0.00 | 1006.3 | |
| 20260505000057 | 0 | 11 | 6.1 | 16.5 | 0.00 | 0.00 | 0.00 | 1005.8 | |
| 20260504234552 | 0 | 208 | 5.2 | 15.6 | 0.00 | 0.00 | 0.00 | 1005.5 | |
| 20260504233100 | 0 | 89 | 4.3 | 12.2 | 0.00 | 0.00 | 0.00 | 1005.5 | |
| 20260504231554 | 0 | 190 | 4.3 | 10.4 | 0.00 | 0.00 | 0.00 | 1005.2 | |
| 20260504230052 | 0 | 208 | 3.5 | 12.2 | 0.00 | 0.00 | 0.00 | 1005.3 | |
| 20260504224553 | 0 | 277 | 3.5 | 14.8 | 0.00 | 0.00 | 0.00 | 1005.1 | |
| 20260504223055 | 53 | 274 | 5.2 | 13.9 | 0.00 | 0.00 | 0.00 | 66 | 1004.9 |
| 20260504221604 | 53 | 194 | 5.2 | 13.9 | 0.00 | 0.00 | 0.00 | 66 | 1004.9 |
| 20260504220122 | 53 | 203 | 7.0 | 17.4 | 0.00 | 0.00 | 0.00 | 66 | 1004.7 |
| 20260504214551 | 54 | 277 | 7.8 | 17.4 | 0.00 | 0.00 | 0.00 | 65 | 1004.8 |
| 20260504213113 | 53 | 230 | 5.2 | 16.5 | 0.00 | 0.00 | 0.00 | 66 | 1005.0 |
| 20260504211550 | 53 | 189 | 8.7 | 16.5 | 0.00 | 0.00 | 0.00 | 65 | 1004.9 |
| 20260504210059 | 53 | 279 | 8.7 | 23.5 | 0.00 | 0.00 | 0.00 | 64 | 1004.8 |
| 20260504204606 | 53 | 170 | 7.8 | 16.5 | 0.00 | 0.00 | 0.00 | 66 | 1004.8 |
| 20260504203052 | 54 | 50 | 5.2 | 20.0 | 0.00 | 0.00 | 0.00 | 64 | 1004.9 |
| 20260504201550 | 57 | 251 | 5.2 | 15.6 | 0.00 | 0.00 | 0.00 | 49 | 1004.3 |
| 20260504194552 | 59 | 201 | 4.3 | 15.6 | 0.00 | 0.00 | 0.00 | 38 | 1003.5 |
| 20260504193054 | 59 | 279 | 5.2 | 19.1 | 0.00 | 0.00 | 0.00 | 37 | 1003.5 |
| 20260504191555 | 60 | 289 | 7.0 | 20.0 | 0.00 | 0.00 | 0.00 | 36 | 1003.5 |
| 20260504190057 | 60 | 269 | 7.8 | 18.2 | 0.00 | 0.00 | 0.00 | 37 | 1003.5 |
| 20260504184558 | 59 | 209 | 7.8 | 20.9 | 0.00 | 0.00 | 0.00 | 36 | 1003.5 |
| 20260504183059 | 58 | 278 | 10.4 | 26.1 | 0.00 | 0.00 | 0.00 | 35 | 1003.6 |
| 20260504181556 | 58 | 251 | 10.4 | 22.6 | 0.00 | 0.00 | 0.00 | 37 | 1003.5 |
| 20260504180057 | 57 | 260 | 10.4 | 24.3 | 0.00 | 0.00 | 0.00 | 42 | 1003.6 |
| 20260504174557 | 57 | 297 | 8.7 | 25.2 | 0.00 | 0.00 | 0.00 | 40 | 1003.7 |
| 20260504173101 | 56 | 220 | 10.4 | 26.9 | 0.00 | 0.00 | 0.00 | 41 | 1003.5 |
| 20260504171606 | 56 | 308 | 7.0 | 22.6 | 0.00 | 0.00 | 0.00 | 43 | 1003.5 |
| 20260504170106 | 55 | 230 | 8.7 | 22.6 | 0.00 | 0.00 | 0.00 | 43 | 1003.5 |
| 20260504081554 | 0 | 302 | 8.7 | 20.9 | 0.00 | 0.00 | 0.00 | 996.9 |